[[{"header":{"parameterUnit":"m.s-1","parameterCategory":2,"la1":30.2991,"la2":30.254,"lo1":-89.0895,"lo2":-89.0444,"dy":0.0017,"dx":0.0017,"nx":28,"ny":28,"refTime":"2024-05-08T09:00:00:Z","depth":"0","parameterNumber":2,"parameterNumberName":"U-component_of_CURRENTS"},"data":[0,0,0,0,0,0,0,0,0,0,0,0,0,0,0,0,0,0,0,0,0,0,0,0,0,0,0,0,0,0,0,0,0,0,0,0,0,0,0,0,0,0,0,0,0,0,0,0,0,0,0,0,0,0,0,0,0,0,-0.2783,-0.2783,0,-0.279,-0.279,-0.2789,-0.2739,-0.2738,-0.2737,-0.2737,-0.2667,-0.2666,-0.2665,0,0,0,0,0,0,0,0,0,0,0,0,0,-0.264,-0.2642,-0.2783,-0.2783,-0.2784,-0.279,-0.279,-0.2789,-0.2739,-0.2738,-0.2737,-0.2736,-0.2667,-0.2666,-0.2665,0,0,0,0,0,0,0,0,0,0,0,0,0,-0.2674,-0.2643,-0.2783,-0.2765,-0.2764,-0.279,-0.279,-0.2789,-0.2739,-0.2738,-0.2737,-0.2736,-0.2668,-0.2666,-0.2665,-0.2679,0,0,-0.266,-0.2659,0,0,0,0,0,0,0,0,-0.2672,-0.2678,-0.2767,-0.2766,-0.2765,-0.2768,-0.2714,-0.2751,-0.274,-0.2742,-0.2737,-0.2735,-0.2699,-0.2695,-0.269,-0.2676,-0.2673,-0.2659,-0.2658,-0.2658,-0.2657,0,0,0,0,0,0,0,-0.267,-0.2677,-0.2779,-0.2768,-0.2767,-0.2727,-0.2731,-0.272,-0.2721,-0.2741,-0.2739,-0.2751,-0.2697,-0.2692,-0.2688,-0.2672,-0.2659,-0.2658,-0.2657,-0.2656,-0.2687,-0.2688,0,0,0,0,0,0,-0.2689,-0.2676,-0.2779,-0.278,-0.2722,-0.2732,-0.2735,-0.2763,-0.2722,-0.2718,-0.2752,-0.2749,-0.2696,-0.269,-0.2686,-0.2715,-0.2658,-0.2656,-0.2655,-0.2685,-0.2687,-0.2689,0,0,0,0,0,0,-0.2686,-0.2699,-0.2779,-0.2732,-0.274,-0.2737,-0.2767,-0.2764,-0.276,-0.2733,-0.2724,-0.2752,-0.2694,-0.2688,-0.2682,-0.2711,-0.2655,-0.2654,-0.2683,-0.2685,-0.2688,-0.2764,0,0,0,0,0,0,-0.2682,-0.2698,-0.2714,-0.2734,-0.2744,-0.2802,-0.2769,-0.2765,-0.2772,-0.2767,-0.273,-0.2722,-0.2693,-0.2685,-0.2681,-0.2708,-0.2653,-0.268,-0.2684,-0.2687,-0.2759,-0.2769,-0.2777,0,0,0,0,0,-0.2677,-0.2712,-0.2715,-0.2727,-0.277,-0.2804,-0.2805,-0.2792,-0.2773,-0.278,-0.2755,-0.2723,-0.2703,-0.2685,-0.2679,-0.2707,-0.2679,-0.2683,-0.2687,-0.2755,-0.2767,-0.2777,0,0,0,0,0,0,-0.2646,-0.2711,-0.2715,-0.2764,-0.2786,-0.2798,-0.2807,-0.28,-0.2787,-0.2776,-0.2739,-0.2731,-0.274,-0.2717,-0.2698,-0.2728,-0.2689,-0.2692,-0.2743,-0.2754,-0.2763,-0.2766,-0.2651,0,0,0,0,0,-0.2654,-0.2699,-0.2743,-0.2775,-0.2795,-0.2801,-0.281,-0.2806,-0.2805,-0.2797,-0.2773,-0.2755,-0.2756,-0.2747,-0.2739,-0.275,-0.2717,-0.2768,-0.2777,-0.2784,-0.2786,-0.2771,-0.2778,-0.2702,-0.2702,-0.2702,0,0,-0.2644,-0.269,-0.2709,-0.2772,-0.2786,-0.2821,-0.2801,-0.2825,-0.2844,-0.2793,-0.2798,-0.2784,-0.2767,-0.2782,-0.2785,-0.2762,-0.2789,-0.279,-0.2796,-0.2793,-0.2776,-0.2783,-0.2789,-0.2705,-0.2704,-0.2704,0,0,-0.2654,-0.2698,-0.2737,-0.2772,-0.2817,-0.2831,-0.2844,-0.2865,-0.2863,-0.2877,-0.2851,-0.2857,-0.2843,-0.2843,-0.2841,-0.2897,-0.284,-0.2896,-0.2938,-0.2925,-0.293,-0.2935,-0.2897,-0.2897,-0.2898,-0.2898,-0.2898,0,-0.2632,-0.2702,-0.2746,-0.2797,-0.2824,-0.2842,-0.2876,-0.2893,-0.2902,-0.2906,-0.2886,-0.2889,-0.2877,-0.2904,-0.2927,-0.2918,-0.2885,-0.2896,-0.2935,-0.2939,-0.2942,-0.2902,-0.2901,-0.2902,-0.2901,-0.2901,-0.2901,0,-0.2678,-0.2729,-0.2758,-0.2833,-0.2865,-0.2901,-0.2944,-0.2965,-0.2965,-0.2971,-0.2991,-0.2978,-0.2973,-0.2987,-0.2972,-0.3002,-0.2963,-0.2949,-0.2903,-0.2954,-0.2909,-0.2907,-0.2908,-0.2906,-0.2905,-0.2904,0,0,-0.2644,-0.2762,-0.2774,-0.2804,-0.2888,-0.2914,-0.2971,-0.3016,-0.304,-0.3048,-0.3067,-0.3088,-0.3068,-0.3067,-0.3055,-0.3054,-0.3057,-0.3014,-0.3011,-0.2968,-0.3002,-0.292,-0.291,-0.3041,-0.3042,-0.3042,-0.2958,0,-0.2658,-0.2755,-0.2808,-0.287,-0.292,-0.2963,-0.3011,-0.3053,-0.3078,-0.3103,-0.3109,-0.3118,-0.3104,-0.3099,-0.3102,-0.3072,-0.3056,-0.308,-0.2966,-0.2962,-0.2877,-0.2907,-0.2787,-0.2698,-0.2955,-0.2955,-0.2955,0,-0.2704,-0.2757,-0.2838,-0.2902,-0.2924,-0.2949,-0.3021,-0.3062,-0.3121,-0.3141,-0.316,-0.3155,-0.317,-0.3143,-0.3108,-0.3118,-0.3064,-0.3036,-0.3032,-0.2926,-0.2877,-0.2691,-0.2684,-0.2666,-0.2951,-0.2951,-0.2952,0,-0.2697,-0.2779,-0.284,-0.287,-0.2953,-0.2965,-0.2985,-0.3059,-0.3087,-0.3151,-0.3169,-0.3186,-0.3175,-0.3141,-0.3085,-0.3091,-0.3026,-0.3021,-0.2894,-0.2886,-0.2747,-0.2727,-0.2701,-0.2981,-0.2981,-0.2982,-0.2982,0,-0.2729,-0.2753,-0.2828,-0.2862,-0.2887,-0.2943,-0.2961,-0.3018,-0.3071,-0.3093,-0.3161,-0.3169,-0.3172,-0.3137,-0.3088,-0.2977,-0.3018,-0.2898,-0.2863,-0.277,-0.2753,-0.2701,-0.2726,-0.2978,-0.2979,-0.298,-0.298,0,-0.2697,-0.2782,-0.2827,-0.2888,-0.2898,-0.2905,-0.2913,-0.2929,-0.3008,-0.3041,-0.3057,-0.3135,-0.3096,-0.3075,-0.3013,-0.2956,-0.2822,-0.2821,-0.2701,-0.2654,-0.2523,-0.2557,-0.2483,-0.2414,-0.2671,-0.2668,-0.2666,0,-0.266,-0.2708,-0.2809,-0.2821,-0.2825,-0.2825,-0.2831,-0.2897,-0.2902,-0.3001,-0.3002,-0.3016,-0.2992,-0.2893,-0.2801,-0.2689,-0.2698,-0.2523,-0.2523,-0.2498,-0.2511,-0.2543,-0.2493,-0.2364,-0.236,-0.2356,-0.2353,0,-0.2533,-0.2611,-0.2635,-0.2699,-0.2711,-0.2723,-0.2709,-0.2719,-0.28,-0.2838,-0.2863,-0.2862,-0.2798,-0.2656,-0.2543,-0.2461,-0.2469,-0.2444,-0.2451,-0.2297,-0.2297,-0.2217,-0.2435,-0.2321,-0.2324,-0.2327,-0.2329,-0.233,-0.2385,-0.2387,-0.2464,-0.248,-0.2525,-0.2551,-0.2484,-0.2522,-0.2528,-0.2532,-0.2635,-0.2589,-0.2538,-0.2364,-0.2294,-0.2142,-0.2212,-0.2076,-0.2123,-0.2163,-0.2087,-0.2228,-0.2063,-0.2064,-0.2066,-0.2067,-0.2068,0,-0.2182,-0.2203,-0.2213,-0.2249,-0.221,-0.2322,-0.2336,-0.2248,-0.2196,-0.2297,-0.2275,-0.2242,-0.2113,-0.2085,-0.1957,-0.1862,-0.1828,-0.1822,-0.185,-0.1817,-0.1947,-0.1925,-0.1682,-0.1682,-0.1682,-0.1682,-0.1682,-0.1682,-0.2092,-0.2036,-0.2045,-0.1898,-0.1905,-0.1799,-0.1778,-0.175,-0.1763,-0.1732,-0.1757,-0.1818,-0.1856,-0.1983,-0.1854,-0.1754,-0.1729,-0.166,-0.1708,-0.1826,-0.1854,-0.1881,-0.1866,-0.1615,-0.1615,-0.1499,-0.1498,-0.1498]},{"header":{"parameterUnit":"m.s-1","parameterCategory":2,"la1":30.2991,"la2":30.254,"lo1":-89.0895,"lo2":-89.0444,"dy":0.0017,"dx":0.0017,"nx":28,"ny":28,"refTime":"2024-05-08T09:00:00:Z","depth":"0","parameterNumber":3,"parameterNumberName":"V-component_of_CURRENTS"},"data":[0,0,0,0,0,0,0,0,0,0,0,0,0,0,0,0,0,0,0,0,0,0,0,0,0,0,0,0,0,0,0,0,0,0,0,0,0,0,0,0,0,0,0,0,0,0,0,0,0,0,0,0,0,0,0,0,0,0,-0.0194,-0.0193,0,-0.0095,-0.0094,-0.0092,-0.0025,-0.0024,-0.0024,-0.0024,0.0119,0.0123,0.0126,0,0,0,0,0,0,0,0,0,0,0,0,0,-0.0251,-0.025,-0.0194,-0.0193,-0.0192,-0.0095,-0.0094,-0.0092,-0.0025,-0.0024,-0.0024,-0.0024,0.0118,0.0122,0.0126,0,0,0,0,0,0,0,0,0,0,0,0,0,-0.0195,-0.025,-0.0194,-0.0148,-0.0143,-0.0096,-0.0094,-0.0092,-0.0025,-0.0024,-0.0024,-0.0023,0.0117,0.0122,0.0127,0.0149,0,0,0.0143,0.0145,0,0,0,0,0,0,0,0,-0.0198,-0.0193,-0.0156,-0.0151,-0.0145,-0.0073,-0.0061,-0.001,-0.0025,-0.0068,-0.0024,-0.0023,0.0058,0.0068,0.0087,0.0156,0.0162,0.0144,0.0147,0.0149,0.015,0,0,0,0,0,0,0,-0.0203,-0.0196,-0.0153,-0.0155,-0.0148,-0.0107,-0.0099,-0.0051,-0.0007,-0.0064,-0.006,-0.0051,0.0061,0.0082,0.0091,0.0164,0.0143,0.0148,0.0151,0.0153,0.0287,0.0287,0,0,0,0,0,0,-0.0223,-0.0201,-0.0156,-0.015,-0.0173,-0.0107,-0.0097,-0.0096,-0.0009,0.0004,-0.0052,-0.0049,0.0072,0.0085,0.0096,0.0142,0.0149,0.0154,0.0157,0.0286,0.0287,0.0287,0,0,0,0,0,0,-0.0224,-0.022,-0.016,-0.0174,-0.0164,-0.0107,-0.0105,-0.0094,-0.0073,0.0,0.0014,-0.0042,0.0073,0.0089,0.0141,0.0148,0.0156,0.0161,0.0286,0.0286,0.0287,0.0225,0,0,0,0,0,0,-0.0226,-0.0221,-0.0228,-0.0176,-0.0164,-0.0139,-0.0105,-0.0092,-0.007,-0.0064,0.0013,0.0027,0.0075,0.0132,0.0146,0.0155,0.0165,0.0285,0.0286,0.0287,0.0227,0.0224,0.0221,0,0,0,0,0,-0.0229,-0.0242,-0.023,-0.0224,-0.0175,-0.014,-0.013,-0.0086,-0.007,-0.0064,-0.0009,0.0024,0.0147,0.0137,0.0152,0.0163,0.0285,0.0286,0.0287,0.0228,0.0224,0.0221,0,0,0,0,0,0,-0.027,-0.0235,-0.022,-0.0223,-0.0188,-0.0129,-0.0123,-0.0093,-0.0045,-0.004,0.0029,0.0047,0.0092,0.0137,0.0124,0.0205,0.0222,0.0226,0.0172,0.0169,0.0166,0.0148,0.0169,0,0,0,0,0,-0.0285,-0.0287,-0.0242,-0.0245,-0.0231,-0.0179,-0.0161,-0.0131,-0.0082,-0.0061,-0.0007,0.0054,0.0109,0.0144,0.0192,0.0238,0.0288,0.0257,0.0254,0.0251,0.0248,0.0338,0.0343,0.029,0.029,0.029,0,0,-0.0302,-0.0284,-0.0284,-0.0254,-0.0224,-0.0208,-0.0166,-0.0144,-0.0124,-0.0053,-0.0013,0.004,0.0116,0.0165,0.0191,0.0205,0.029,0.0252,0.0249,0.0248,0.0339,0.0345,0.0349,0.0291,0.029,0.029,0,0,-0.0335,-0.0322,-0.0332,-0.0308,-0.0272,-0.0237,-0.0235,-0.018,-0.015,-0.0107,-0.0049,0.0011,0.0086,0.0152,0.0193,0.0206,0.0264,0.0216,0.0199,0.0286,0.0291,0.0296,0.0352,0.0363,0.0225,0.0224,0.0224,0,-0.0358,-0.0363,-0.0328,-0.0328,-0.0314,-0.0255,-0.0256,-0.0214,-0.0148,-0.0118,-0.0105,0.0025,0.0084,0.0167,0.0169,0.02,0.0245,0.0203,0.0282,0.0288,0.0295,0.0351,0.0363,0.0222,0.0222,0.0222,0.0222,0,-0.039,-0.0395,-0.0399,-0.038,-0.0359,-0.0352,-0.0294,-0.0264,-0.0223,-0.0172,-0.0097,-0.001,0.0069,0.01,0.0138,0.0214,0.0228,0.0259,0.0286,0.0296,0.0355,0.0369,0.0217,0.0218,0.0219,0.022,0,0,-0.044,-0.0427,-0.0428,-0.0433,-0.0388,-0.0377,-0.0341,-0.0287,-0.0258,-0.0184,-0.0135,-0.0033,0.0014,0.0063,0.013,0.021,0.0288,0.0243,0.0249,0.029,0.0458,0.0492,0.0511,0.0331,0.0333,0.0335,0.0476,0,-0.0476,-0.049,-0.0474,-0.0487,-0.0484,-0.0432,-0.0405,-0.0346,-0.0283,-0.022,-0.0111,-0.0044,0.0002,0.004,0.0125,0.0249,0.0324,0.0245,0.0451,0.0456,0.0479,0.0529,0.0558,0.0688,0.049,0.0492,0.0494,0,-0.05,-0.0514,-0.0519,-0.0532,-0.053,-0.053,-0.0476,-0.0446,-0.0336,-0.0285,-0.0191,-0.0108,0.0017,0.0051,0.0266,0.0211,0.0319,0.0417,0.0426,0.0489,0.0518,0.0652,0.0722,0.0879,0.0517,0.0515,0.0513,0,-0.0503,-0.0548,-0.0553,-0.0551,-0.054,-0.0546,-0.055,-0.0463,-0.0439,-0.0323,-0.0281,-0.0127,-0.0047,0.0116,0.0303,0.029,0.0539,0.0554,0.0687,0.0689,0.0772,0.0778,0.1014,0.0705,0.0705,0.0704,0.0704,0,-0.0499,-0.052,-0.057,-0.0557,-0.0612,-0.0592,-0.0607,-0.0566,-0.0504,-0.0463,-0.0328,-0.0248,-0.0025,0.0142,0.0302,0.0539,0.0545,0.0695,0.0741,0.0749,0.0751,0.0937,0.0989,0.071,0.0709,0.0708,0.0707,0,-0.0457,-0.0467,-0.0506,-0.0555,-0.0591,-0.0624,-0.0689,-0.0693,-0.0615,-0.0554,-0.052,-0.0327,-0.0098,0.0126,0.0408,0.0542,0.087,0.0841,0.0817,0.0858,0.1116,0.1161,0.1425,0.1525,0.1015,0.1017,0.1019,0,-0.0432,-0.0436,-0.052,-0.0573,-0.0605,-0.0683,-0.0736,-0.0736,-0.0738,-0.059,-0.056,-0.0332,-0.0138,0.0274,0.0557,0.0859,0.0971,0.1041,0.103,0.1153,0.1238,0.1262,0.1328,0.1111,0.1114,0.1115,0.1117,0,-0.0427,-0.0443,-0.0479,-0.058,-0.0666,-0.0761,-0.0843,-0.0868,-0.0825,-0.0742,-0.0569,-0.0393,0.0012,0.0392,0.076,0.093,0.1158,0.1086,0.1247,0.1366,0.1377,0.1486,0.0967,0.1133,0.1131,0.113,0.1129,0.1129,-0.046,-0.0494,-0.054,-0.0635,-0.0725,-0.0813,-0.0859,-0.0909,-0.0886,-0.0715,-0.0576,-0.0254,0.0251,0.0796,0.0996,0.1378,0.1328,0.1481,0.1533,0.1551,0.1637,0.1131,0.1325,0.1325,0.1324,0.1324,0.1323,0,-0.0525,-0.0548,-0.0622,-0.0712,-0.0781,-0.082,-0.0903,-0.0886,-0.0836,-0.0655,-0.0441,0.0132,0.0632,0.1082,0.1613,0.1817,0.1866,0.1901,0.1958,0.2011,0.1611,0.1604,0.1826,0.1826,0.1826,0.1825,0.1825,0.1825,-0.0565,-0.0625,-0.0642,-0.0744,-0.0793,-0.0842,-0.0863,-0.0792,-0.0664,-0.0317,0.0011,0.0278,0.0854,0.1701,0.2186,0.222,0.2407,0.2372,0.2481,0.2207,0.2171,0.2137,0.2147,0.2479,0.248,0.2868,0.2872,0.2875]}],[{"header":{"parameterUnit":"m.s-1","parameterCategory":2,"la1":30.2991,"la2":30.254,"lo1":-89.0895,"lo2":-89.0444,"dy":0.0017,"dx":0.0017,"nx":28,"ny":28,"refTime":"2024-05-08T09:00:00:Z","depth":"2","parameterNumber":2,"parameterNumberName":"U-component_of_CURRENTS"},"data":[0,0,0,0,0,0,0,0,0,0,0,0,0,0,0,0,0,0,0,0,0,0,0,0,0,0,0,0,0,0,0,0,0,0,0,0,0,0,0,0,0,0,0,0,0,0,0,0,0,0,0,0,0,0,0,0,0,0,-0.2475,-0.2476,0,-0.2498,-0.2498,-0.2498,-0.2468,-0.2467,-0.2466,-0.2465,-0.2425,-0.2425,-0.2424,0,0,0,0,0,0,0,0,0,0,0,0,0,-0.2383,-0.2384,-0.2475,-0.2476,-0.2476,-0.2498,-0.2498,-0.2498,-0.2468,-0.2467,-0.2466,-0.2465,-0.2425,-0.2425,-0.2424,0,0,0,0,0,0,0,0,0,0,0,0,0,-0.2413,-0.2385,-0.2475,-0.2466,-0.2466,-0.2498,-0.2498,-0.2498,-0.2468,-0.2467,-0.2466,-0.2464,-0.2425,-0.2425,-0.2424,-0.2444,0,0,-0.2423,-0.2422,0,0,0,0,0,0,0,0,-0.2411,-0.2416,-0.2467,-0.2467,-0.2467,-0.2482,-0.2451,-0.2478,-0.2468,-0.2463,-0.2465,-0.2464,-0.2441,-0.2439,-0.2442,-0.2442,-0.2441,-0.2422,-0.2422,-0.2422,-0.2422,0,0,0,0,0,0,0,-0.2409,-0.2414,-0.248,-0.2468,-0.2468,-0.2454,-0.2457,-0.2456,-0.2455,-0.2464,-0.2462,-0.2471,-0.244,-0.2443,-0.2441,-0.244,-0.2422,-0.2422,-0.2422,-0.2421,-0.2471,-0.2472,0,0,0,0,0,0,-0.2416,-0.2413,-0.248,-0.2482,-0.2439,-0.2457,-0.246,-0.2475,-0.2456,-0.2454,-0.2472,-0.247,-0.2444,-0.2441,-0.2439,-0.2476,-0.2422,-0.2421,-0.2421,-0.2469,-0.2471,-0.2473,0,0,0,0,0,0,-0.2414,-0.2422,-0.2479,-0.245,-0.2456,-0.246,-0.2477,-0.2476,-0.2479,-0.2464,-0.2459,-0.2476,-0.2443,-0.244,-0.2446,-0.2473,-0.2421,-0.2421,-0.2467,-0.247,-0.2472,-0.2539,0,0,0,0,0,0,-0.2412,-0.2422,-0.2431,-0.2451,-0.2459,-0.2504,-0.2479,-0.2478,-0.2488,-0.2485,-0.2466,-0.2461,-0.2442,-0.2447,-0.2445,-0.2471,-0.242,-0.2465,-0.2468,-0.2471,-0.2535,-0.2544,-0.2551,0,0,0,0,0,-0.2408,-0.243,-0.2432,-0.244,-0.2473,-0.2506,-0.2508,-0.2504,-0.249,-0.25,-0.2487,-0.2462,-0.2465,-0.2448,-0.2446,-0.2472,-0.2464,-0.2467,-0.2471,-0.2531,-0.2542,-0.2551,0,0,0,0,0,0,-0.2391,-0.243,-0.2432,-0.2463,-0.2486,-0.2502,-0.2511,-0.2511,-0.251,-0.2504,-0.2479,-0.2475,-0.2492,-0.2476,-0.2458,-0.2497,-0.2462,-0.2465,-0.2509,-0.2518,-0.2526,-0.2522,-0.242,0,0,0,0,0,-0.2395,-0.242,-0.2453,-0.2475,-0.249,-0.2502,-0.2513,-0.2516,-0.2522,-0.252,-0.2509,-0.2502,-0.2508,-0.2507,-0.2506,-0.2526,-0.2497,-0.2544,-0.2552,-0.2558,-0.2556,-0.2547,-0.2553,-0.2485,-0.2485,-0.2485,0,0,-0.2391,-0.2418,-0.2429,-0.2473,-0.2487,-0.252,-0.2504,-0.253,-0.2553,-0.2516,-0.2534,-0.2529,-0.2521,-0.2543,-0.255,-0.2531,-0.2563,-0.2563,-0.2569,-0.2562,-0.2551,-0.2557,-0.2563,-0.2487,-0.2487,-0.2486,0,0,-0.2402,-0.2425,-0.2451,-0.2479,-0.2516,-0.2532,-0.2543,-0.2568,-0.2573,-0.2599,-0.2581,-0.2593,-0.2596,-0.26,-0.2601,-0.2656,-0.2607,-0.2658,-0.2693,-0.2685,-0.269,-0.2694,-0.2661,-0.2662,-0.266,-0.266,-0.2661,0,-0.2392,-0.2435,-0.2461,-0.2498,-0.2522,-0.2541,-0.2573,-0.2594,-0.2615,-0.2623,-0.2611,-0.2631,-0.2626,-0.2655,-0.2676,-0.2674,-0.2647,-0.2655,-0.2694,-0.2697,-0.27,-0.2666,-0.2665,-0.2664,-0.2664,-0.2663,-0.2663,0,-0.2428,-0.2462,-0.2482,-0.2536,-0.2565,-0.2598,-0.2637,-0.2662,-0.2671,-0.2683,-0.271,-0.271,-0.2714,-0.2728,-0.2719,-0.2747,-0.2714,-0.2705,-0.2665,-0.2711,-0.2672,-0.267,-0.2669,-0.2668,-0.2667,-0.2666,0,0,-0.2397,-0.2487,-0.2492,-0.252,-0.2588,-0.2612,-0.2666,-0.2709,-0.2732,-0.2755,-0.2776,-0.2805,-0.2793,-0.2795,-0.2789,-0.2791,-0.2796,-0.2759,-0.2757,-0.2719,-0.2756,-0.2674,-0.2663,-0.2789,-0.279,-0.279,-0.2717,0,-0.2409,-0.2475,-0.2524,-0.258,-0.2612,-0.2661,-0.2705,-0.2747,-0.2775,-0.2801,-0.2814,-0.283,-0.2823,-0.2824,-0.283,-0.2808,-0.2796,-0.2815,-0.2723,-0.272,-0.2636,-0.2661,-0.2473,-0.2387,-0.2715,-0.2715,-0.2715,0,-0.2415,-0.2463,-0.2509,-0.2595,-0.2615,-0.2653,-0.2716,-0.2761,-0.2814,-0.2835,-0.2858,-0.2859,-0.2879,-0.2859,-0.2837,-0.2846,-0.2803,-0.2781,-0.2777,-0.2674,-0.2635,-0.2397,-0.2371,-0.2711,-0.2712,-0.2712,-0.2712,0,-0.2334,-0.2449,-0.2477,-0.2505,-0.2602,-0.2633,-0.2691,-0.2756,-0.2788,-0.2845,-0.2864,-0.2885,-0.2885,-0.2859,-0.2819,-0.2824,-0.2774,-0.2772,-0.2653,-0.2646,-0.2453,-0.2428,-0.2739,-0.274,-0.274,-0.274,-0.274,0,-0.2286,-0.2315,-0.2447,-0.2442,-0.2502,-0.2591,-0.2636,-0.2699,-0.2774,-0.2799,-0.2861,-0.2869,-0.2885,-0.286,-0.282,-0.2725,-0.2768,-0.2653,-0.2625,-0.2471,-0.245,-0.2708,-0.2705,-0.2737,-0.2738,-0.2738,-0.2739,0,-0.2153,-0.2227,-0.228,-0.2403,-0.2441,-0.2478,-0.2601,-0.2637,-0.2726,-0.2761,-0.2777,-0.2847,-0.2817,-0.2806,-0.2757,-0.2707,-0.2639,-0.2588,-0.2397,-0.2348,-0.2514,-0.2516,-0.245,-0.2447,-0.2444,-0.2442,-0.244,0,-0.2079,-0.2088,-0.2225,-0.2249,-0.2295,-0.2381,-0.243,-0.2572,-0.2618,-0.2726,-0.2728,-0.2744,-0.2714,-0.2631,-0.2547,-0.2447,-0.2533,-0.2226,-0.2212,-0.2506,-0.2486,-0.2492,-0.2498,-0.1977,-0.1971,-0.1967,-0.1963,0,-0.1947,-0.2002,-0.2043,-0.2113,-0.2169,-0.2244,-0.2338,-0.2373,-0.252,-0.2559,-0.2589,-0.2579,-0.2522,-0.2348,-0.2249,-0.2168,-0.2236,-0.2128,-0.2471,-0.2092,-0.2057,-0.2039,-0.206,-0.1922,-0.1926,-0.1929,-0.1931,-0.1933,-0.1855,-0.187,-0.1929,-0.1984,-0.2043,-0.2081,-0.2079,-0.2189,-0.223,-0.225,-0.2353,-0.2266,-0.2262,-0.2,-0.1898,-0.1813,-0.1958,-0.1874,-0.1889,-0.1909,-0.188,-0.1843,-0.166,-0.1662,-0.1665,-0.1667,-0.1668,0,-0.1745,-0.1766,-0.1802,-0.1848,-0.1844,-0.1928,-0.1984,-0.195,-0.1935,-0.1986,-0.197,-0.1772,-0.166,-0.1654,-0.1463,-0.1436,-0.1428,-0.1377,-0.1373,-0.1413,-0.145,-0.1399,-0.1051,-0.1049,-0.1048,-0.1046,0,0,-0.1681,-0.1659,-0.1684,-0.1633,-0.1654,-0.159,-0.1578,-0.1549,-0.1545,-0.1476,-0.143,-0.1528,-0.1586,-0.1313,-0.126,-0.1125,-0.1253,-0.1063,-0.1555,-0.1588,-0.1622,-0.1728,-0.1694,0,0,0,0,0]},{"header":{"parameterUnit":"m.s-1","parameterCategory":2,"la1":30.2991,"la2":30.254,"lo1":-89.0895,"lo2":-89.0444,"dy":0.0017,"dx":0.0017,"nx":28,"ny":28,"refTime":"2024-05-08T09:00:00:Z","depth":"2","parameterNumber":3,"parameterNumberName":"V-component_of_CURRENTS"},"data":[0,0,0,0,0,0,0,0,0,0,0,0,0,0,0,0,0,0,0,0,0,0,0,0,0,0,0,0,0,0,0,0,0,0,0,0,0,0,0,0,0,0,0,0,0,0,0,0,0,0,0,0,0,0,0,0,0,0,-0.023,-0.0229,0,-0.0142,-0.0141,-0.014,-0.0079,-0.0079,-0.0078,-0.0078,0.0059,0.0062,0.0065,0,0,0,0,0,0,0,0,0,0,0,0,0,-0.0279,-0.0279,-0.023,-0.0229,-0.0228,-0.0142,-0.0141,-0.0139,-0.0079,-0.0079,-0.0078,-0.0078,0.0057,0.0061,0.0066,0,0,0,0,0,0,0,0,0,0,0,0,0,-0.023,-0.0279,-0.023,-0.0189,-0.0185,-0.0142,-0.0141,-0.0139,-0.0079,-0.0079,-0.0078,-0.0078,0.0056,0.0061,0.0066,0.0089,0,0,0.0082,0.0084,0,0,0,0,0,0,0,0,-0.0232,-0.0228,-0.0196,-0.0192,-0.0187,-0.0123,-0.0108,-0.0061,-0.0079,-0.0117,-0.0078,-0.0078,0.0001,0.001,0.0028,0.0096,0.0102,0.0082,0.0085,0.0087,0.0089,0,0,0,0,0,0,0,-0.0236,-0.0231,-0.0193,-0.0195,-0.019,-0.0152,-0.0145,-0.0099,-0.0059,-0.0114,-0.0109,-0.0103,0.0004,0.0023,0.0032,0.0104,0.0082,0.0086,0.009,0.0092,0.021,0.021,0,0,0,0,0,0,-0.0255,-0.0234,-0.0196,-0.0191,-0.0211,-0.0152,-0.0144,-0.0142,-0.006,-0.0048,-0.0104,-0.0101,0.0014,0.0026,0.0037,0.0073,0.0087,0.0092,0.0095,0.021,0.021,0.021,0,0,0,0,0,0,-0.0256,-0.0253,-0.0199,-0.0212,-0.0203,-0.0153,-0.015,-0.0141,-0.0122,-0.0054,-0.004,-0.0095,0.0015,0.003,0.0079,0.0078,0.0094,0.0099,0.021,0.021,0.021,0.0142,0,0,0,0,0,0,-0.0258,-0.0254,-0.026,-0.0213,-0.0203,-0.0182,-0.015,-0.0139,-0.012,-0.0115,-0.0042,-0.0029,0.0017,0.0071,0.0084,0.0086,0.0103,0.021,0.021,0.021,0.0144,0.0139,0.0136,0,0,0,0,0,-0.026,-0.0273,-0.0261,-0.0256,-0.0213,-0.0183,-0.0174,-0.0135,-0.012,-0.0116,-0.0064,-0.0031,0.0081,0.0075,0.009,0.0093,0.021,0.021,0.021,0.0146,0.014,0.0136,0,0,0,0,0,0,-0.0299,-0.0267,-0.0253,-0.0256,-0.0226,-0.0174,-0.0169,-0.0142,-0.0098,-0.0093,-0.0027,-0.001,0.0029,0.0072,0.0063,0.0128,0.015,0.0153,0.0096,0.0091,0.0087,0.0067,0.0107,0,0,0,0,0,-0.0312,-0.0314,-0.0273,-0.0277,-0.0266,-0.0219,-0.0203,-0.0176,-0.0132,-0.0112,-0.0061,-0.0006,0.0042,0.0074,0.0119,0.0159,0.0203,0.017,0.0166,0.0162,0.0157,0.0229,0.0231,0.0211,0.0211,0.0211,0,0,-0.0328,-0.0312,-0.0313,-0.0286,-0.026,-0.0249,-0.0208,-0.019,-0.0175,-0.0104,-0.0071,-0.0022,0.0048,0.0088,0.011,0.0126,0.019,0.0163,0.0159,0.0156,0.0229,0.0231,0.0233,0.0211,0.0211,0.0211,0,0,-0.0365,-0.0348,-0.0362,-0.034,-0.031,-0.0277,-0.0276,-0.0227,-0.0201,-0.0163,-0.0109,-0.0058,0.0012,0.0067,0.0103,0.0106,0.0161,0.0116,0.0089,0.0158,0.016,0.0163,0.0214,0.0221,0.0121,0.0121,0.0121,0,-0.0388,-0.0396,-0.036,-0.0364,-0.0352,-0.0296,-0.0301,-0.0264,-0.0204,-0.0181,-0.0163,-0.0052,0.0005,0.0068,0.0067,0.0098,0.0136,0.0099,0.0152,0.0156,0.016,0.0212,0.0221,0.0118,0.0118,0.0118,0.0119,0,-0.0429,-0.0432,-0.0438,-0.0424,-0.0405,-0.0401,-0.0348,-0.0322,-0.0285,-0.0241,-0.0181,-0.0099,-0.0031,-0.0005,0.0032,0.0086,0.0103,0.0132,0.016,0.0157,0.0212,0.0223,0.0113,0.0114,0.0115,0.0116,0,0,-0.0491,-0.0472,-0.0475,-0.0478,-0.0437,-0.0426,-0.0401,-0.0358,-0.0338,-0.0272,-0.0236,-0.0148,-0.0103,-0.0059,0.0002,0.0064,0.0123,0.0099,0.0104,0.0141,0.0261,0.0289,0.0304,0.0158,0.016,0.0161,0.0286,0,-0.0536,-0.0561,-0.0531,-0.0546,-0.0554,-0.0494,-0.0474,-0.0425,-0.037,-0.032,-0.0225,-0.0169,-0.0122,-0.0088,-0.002,0.0089,0.0149,0.0085,0.0266,0.0271,0.0291,0.0318,0.0274,0.0383,0.0297,0.0299,0.03,0,-0.0593,-0.0598,-0.063,-0.0609,-0.0605,-0.0601,-0.0557,-0.0529,-0.0439,-0.0395,-0.0318,-0.0241,-0.0138,-0.01,0.0082,0.0036,0.0134,0.0219,0.0227,0.0284,0.032,0.0377,0.0407,0.0319,0.0317,0.0316,0.0315,0,-0.0677,-0.0667,-0.0698,-0.0694,-0.0661,-0.0658,-0.063,-0.0559,-0.0534,-0.044,-0.0406,-0.0276,-0.0202,-0.0064,0.0107,0.0097,0.0306,0.0323,0.0441,0.0444,0.0459,0.046,0.0447,0.0447,0.0446,0.0446,0.0446,0,-0.076,-0.078,-0.0739,-0.0768,-0.0784,-0.0728,-0.073,-0.0684,-0.0609,-0.0575,-0.0454,-0.039,-0.0189,-0.0043,0.0099,0.0306,0.0309,0.0441,0.0485,0.0433,0.0431,0.0416,0.0411,0.0451,0.045,0.0449,0.0448,0,-0.0875,-0.0852,-0.0884,-0.0853,-0.0841,-0.0858,-0.0809,-0.0796,-0.0716,-0.0665,-0.0637,-0.0463,-0.0265,-0.0063,0.0182,0.0304,0.0493,0.0563,0.0479,0.051,0.0581,0.0571,0.0708,0.071,0.0712,0.0713,0.0715,0,-0.094,-0.097,-0.0965,-0.0983,-0.098,-0.0973,-0.0963,-0.0875,-0.0845,-0.0704,-0.0679,-0.048,-0.032,0.0043,0.0293,0.056,0.0554,0.0661,0.0641,0.0583,0.0612,0.0598,0.0586,0.0633,0.0633,0.0634,0.0634,0,-0.1049,-0.1049,-0.1074,-0.1117,-0.1123,-0.1111,-0.1077,-0.1062,-0.0942,-0.0863,-0.0711,-0.0568,-0.0215,0.0086,0.042,0.0558,0.0615,0.0679,0.0667,0.0567,0.0521,0.0546,0.0535,0.0638,0.0637,0.0637,0.0637,0.0637,-0.1111,-0.1156,-0.1188,-0.1228,-0.124,-0.1229,-0.1222,-0.1137,-0.1063,-0.0898,-0.0749,-0.0496,-0.0212,0.0274,0.0505,0.0705,0.07,0.0743,0.0738,0.0733,0.0696,0.0656,0.079,0.079,0.0791,0.0791,0.0791,0,-0.1158,-0.1213,-0.1279,-0.1319,-0.1357,-0.1329,-0.128,-0.123,-0.112,-0.0904,-0.0711,-0.0389,-0.0029,0.0257,0.0592,0.0792,0.0761,0.0802,0.0726,0.0721,0.0716,0.0675,0.0766,0.0766,0.0767,0.0768,0,0,-0.1182,-0.1265,-0.1307,-0.1397,-0.1428,-0.1433,-0.1401,-0.1291,-0.1126,-0.0899,-0.0676,-0.037,-0.0014,0.0221,0.0462,0.0631,0.0617,0.063,0.0627,0.0502,0.0495,0.0656,0.0584,0,0,0,0,0]}],[{"header":{"parameterUnit":"m.s-1","parameterCategory":2,"la1":30.2991,"la2":30.254,"lo1":-89.0895,"lo2":-89.0444,"dy":0.0017,"dx":0.0017,"nx":28,"ny":28,"refTime":"2024-05-08T09:00:00:Z","depth":"4","parameterNumber":2,"parameterNumberName":"U-component_of_CURRENTS"},"data":[0,0,0,0,0,0,0,0,0,0,0,0,0,0,0,0,0,0,0,0,0,0,0,0,0,0,0,0,0,0,0,0,0,0,0,0,0,0,0,0,0,0,0,0,0,0,0,0,0,0,0,0,0,0,0,0,0,0,-0.173,-0.1731,0,-0.1797,-0.1798,-0.1799,-0.184,-0.184,-0.1841,-0.1841,-0.1903,-0.1904,-0.1906,0,0,0,0,0,0,0,0,0,0,0,0,0,-0.1667,-0.1668,-0.173,-0.1731,-0.1732,-0.1797,-0.1798,-0.1799,-0.184,-0.184,-0.1841,-0.1841,-0.1902,-0.1904,-0.1906,0,0,0,0,0,0,0,0,0,0,0,0,0,-0.171,-0.1668,-0.173,-0.1761,-0.1764,-0.1797,-0.1798,-0.1799,-0.184,-0.184,-0.1841,-0.1841,-0.1902,-0.1904,-0.1906,-0.191,0,0,-0.1912,-0.1913,0,0,0,0,0,0,0,0,-0.1707,-0.1712,-0.1755,-0.1759,-0.1763,-0.1811,-0.1799,-0.1836,-0.184,-0.181,-0.1841,-0.1841,-0.1872,-0.1876,-0.1887,-0.1913,-0.1916,-0.1912,-0.1914,-0.1915,-0.1915,0,0,0,0,0,0,0,-0.1704,-0.1709,-0.1756,-0.1756,-0.1761,-0.1782,-0.1788,-0.1806,-0.1837,-0.1813,-0.1816,-0.1825,-0.1874,-0.1885,-0.1889,-0.1917,-0.1912,-0.1914,-0.1916,-0.1916,-0.2029,-0.2031,0,0,0,0,0,0,-0.1695,-0.1706,-0.1754,-0.1758,-0.1736,-0.1782,-0.1789,-0.1795,-0.1837,-0.1844,-0.1824,-0.1826,-0.1881,-0.1886,-0.1891,-0.1975,-0.1915,-0.1917,-0.1918,-0.2028,-0.203,-0.2032,0,0,0,0,0,0,-0.1694,-0.1699,-0.1751,-0.1734,-0.1743,-0.1783,-0.1789,-0.1796,-0.1836,-0.1846,-0.1853,-0.186,-0.1882,-0.1888,-0.1939,-0.1975,-0.1918,-0.1919,-0.2026,-0.2028,-0.2031,-0.2094,0,0,0,0,0,0,-0.1691,-0.1698,-0.1715,-0.1734,-0.1743,-0.1791,-0.1789,-0.1797,-0.1839,-0.1843,-0.1879,-0.1883,-0.1883,-0.1936,-0.1941,-0.1977,-0.1921,-0.2023,-0.2027,-0.203,-0.209,-0.2098,-0.2106,0,0,0,0,0,-0.1689,-0.1705,-0.1715,-0.1722,-0.176,-0.1792,-0.18,-0.1828,-0.184,-0.1865,-0.1893,-0.1884,-0.196,-0.1939,-0.1945,-0.1982,-0.2022,-0.2026,-0.203,-0.2086,-0.2097,-0.2106,0,0,0,0,0,0,-0.1694,-0.1712,-0.1722,-0.1746,-0.1777,-0.18,-0.1827,-0.1846,-0.1888,-0.1901,-0.1907,-0.1915,-0.1971,-0.197,-0.1946,-0.2024,-0.1989,-0.1994,-0.203,-0.204,-0.2048,-0.2032,-0.1923,0,0,0,0,0,-0.17,-0.1716,-0.1739,-0.1764,-0.1779,-0.1809,-0.1832,-0.1854,-0.1885,-0.1905,-0.1932,-0.196,-0.1987,-0.2009,-0.203,-0.2075,-0.2048,-0.2102,-0.211,-0.2117,-0.2109,-0.2104,-0.211,-0.2045,-0.2045,-0.2045,0,0,-0.1712,-0.1723,-0.1735,-0.1767,-0.1791,-0.1824,-0.1825,-0.1869,-0.1908,-0.1904,-0.1974,-0.1991,-0.2005,-0.2056,-0.2081,-0.2064,-0.2124,-0.2122,-0.2128,-0.2116,-0.2109,-0.2115,-0.212,-0.2047,-0.2047,-0.2046,0,0,-0.1732,-0.1751,-0.1769,-0.1796,-0.1837,-0.1857,-0.1876,-0.1919,-0.1951,-0.2013,-0.2019,-0.206,-0.211,-0.2124,-0.2135,-0.2201,-0.2166,-0.2215,-0.2247,-0.2243,-0.2248,-0.2252,-0.2229,-0.223,-0.2221,-0.2221,-0.2221,0,-0.1749,-0.177,-0.1784,-0.1811,-0.1841,-0.1874,-0.1911,-0.1948,-0.2009,-0.2033,-0.2046,-0.2119,-0.2138,-0.2181,-0.2209,-0.2219,-0.2201,-0.2209,-0.2252,-0.2255,-0.2258,-0.2233,-0.2234,-0.2225,-0.2224,-0.2224,-0.2224,0,-0.1772,-0.1806,-0.1823,-0.1864,-0.1899,-0.1939,-0.1984,-0.2032,-0.2076,-0.2104,-0.2169,-0.2197,-0.2232,-0.2255,-0.2256,-0.2293,-0.2268,-0.226,-0.2222,-0.2268,-0.2239,-0.2239,-0.223,-0.2228,-0.2227,-0.2227,0,0,-0.1761,-0.1827,-0.1836,-0.1867,-0.1932,-0.196,-0.2029,-0.2086,-0.2124,-0.2188,-0.223,-0.2292,-0.23,-0.2312,-0.2322,-0.2328,-0.2343,-0.2308,-0.2306,-0.2275,-0.2319,-0.2173,-0.2157,-0.2341,-0.2342,-0.2342,-0.2292,0,-0.1779,-0.1827,-0.1867,-0.1936,-0.1961,-0.2023,-0.2077,-0.2136,-0.2186,-0.2236,-0.227,-0.2316,-0.2324,-0.2346,-0.2356,-0.2349,-0.2343,-0.2356,-0.2287,-0.2284,-0.214,-0.2153,-0.2343,-0.2291,-0.229,-0.229,-0.229,0,-0.1769,-0.1808,-0.1859,-0.1954,-0.1975,-0.2033,-0.2113,-0.2172,-0.2239,-0.2276,-0.2322,-0.2341,-0.2378,-0.2371,-0.2371,-0.2379,-0.2352,-0.2337,-0.2334,-0.2169,-0.2136,-0.2236,-0.2288,-0.2288,-0.2288,-0.2288,-0.2289,0,-0.1692,-0.1803,-0.184,-0.187,-0.1974,-0.203,-0.2106,-0.2182,-0.2225,-0.23,-0.2325,-0.2367,-0.239,-0.2377,-0.236,-0.2368,-0.2331,-0.2336,-0.2172,-0.2161,-0.2281,-0.2277,-0.2312,-0.2312,-0.2312,-0.2312,-0.2312,0,-0.1641,-0.1685,-0.1819,-0.1828,-0.1909,-0.2003,-0.2083,-0.2153,-0.2237,-0.2266,-0.234,-0.2344,-0.2393,-0.238,-0.2356,-0.225,-0.2327,-0.2162,-0.2134,-0.231,-0.2311,-0.228,-0.2277,-0.231,-0.2311,-0.2311,-0.2311,0,-0.1519,-0.1594,-0.166,-0.1803,-0.1855,-0.1914,-0.2076,-0.212,-0.2215,-0.2251,-0.2274,-0.2334,-0.2307,-0.2321,-0.2292,-0.2224,-0.2153,-0.2093,-0.2269,-0.2254,-0.1988,-0.1989,-0.1901,-0.1895,-0.189,-0.1886,-0.1883,0,-0.1452,-0.1462,-0.1621,-0.1666,-0.174,-0.1858,-0.1924,-0.2075,-0.2119,-0.2211,-0.2203,-0.2223,-0.2237,-0.207,-0.2111,-0.2036,-0.2014,-0.1971,-0.1987,-0.1961,-0.1944,-0.1953,-0.1961,-0.1875,-0.1874,-0.1873,-0.1871,0,-0.1337,-0.1402,-0.1456,-0.1551,-0.1641,-0.1736,-0.1857,-0.1872,-0.201,-0.2115,-0.206,-0.2025,-0.1985,-0.1952,-0.1905,-0.1857,-0.2,-0.192,-0.193,-0.1945,-0.1929,-0.1919,-0.1932,-0.1855,-0.1857,-0.1859,-0.186,0,-0.1265,-0.1286,-0.136,-0.1433,-0.1534,-0.158,-0.1672,-0.1728,-0.1784,-0.1902,-0.187,-0.1888,-0.1952,-0.1855,-0.1811,-0.1753,-0.173,-0.1682,-0.1705,-0.1724,-0.1689,-0.1645,-0.1441,0,0,0,0,0,-0.1192,-0.119,-0.1245,-0.1313,-0.1406,-0.1461,-0.1601,-0.1692,-0.1826,-0.1735,-0.18,-0.1748,-0.1673,-0.169,-0.1588,-0.1734,-0.1744,-0.1611,-0.1704,-0.1762,-0.1781,-0.1758,0,0,0,0,0,0,-0.1137,-0.1173,-0.1192,-0.1188,-0.1207,-0.1297,-0.1376,-0.1476,-0.1449,-0.1575,-0.154,-0.1629,-0.1582,-0.168,-0.1539,-0.1546,-0.1568,-0.164,-0.1635,-0.1751,-0.1768,-0.1784,-0.1767,0,0,0,0,0]},{"header":{"parameterUnit":"m.s-1","parameterCategory":2,"la1":30.2991,"la2":30.254,"lo1":-89.0895,"lo2":-89.0444,"dy":0.0017,"dx":0.0017,"nx":28,"ny":28,"refTime":"2024-05-08T09:00:00:Z","depth":"4","parameterNumber":3,"parameterNumberName":"V-component_of_CURRENTS"},"data":[0,0,0,0,0,0,0,0,0,0,0,0,0,0,0,0,0,0,0,0,0,0,0,0,0,0,0,0,0,0,0,0,0,0,0,0,0,0,0,0,0,0,0,0,0,0,0,0,0,0,0,0,0,0,0,0,0,0,-0.0133,-0.0133,0,-0.0075,-0.0075,-0.0074,-0.0032,-0.0032,-0.0032,-0.0032,0.008,0.0082,0.0085,0,0,0,0,0,0,0,0,0,0,0,0,0,-0.0167,-0.0167,-0.0133,-0.0133,-0.0132,-0.0076,-0.0075,-0.0074,-0.0032,-0.0032,-0.0032,-0.0032,0.0079,0.0082,0.0085,0,0,0,0,0,0,0,0,0,0,0,0,0,-0.0133,-0.0167,-0.0133,-0.0106,-0.0103,-0.0076,-0.0075,-0.0073,-0.0032,-0.0032,-0.0032,-0.0032,0.0078,0.0082,0.0086,0.0107,0,0,0.0099,0.0101,0,0,0,0,0,0,0,0,-0.0135,-0.0132,-0.0111,-0.0108,-0.0105,-0.0063,-0.0046,-0.0011,-0.0032,-0.0057,-0.0032,-0.0032,0.0036,0.0043,0.0056,0.0113,0.0117,0.0099,0.0102,0.0104,0.0105,0,0,0,0,0,0,0,-0.0138,-0.0134,-0.0108,-0.011,-0.0107,-0.0083,-0.0078,-0.0039,-0.001,-0.0055,-0.0052,-0.0049,0.0038,0.0051,0.0059,0.0119,0.0099,0.0103,0.0105,0.0107,0.0199,0.0199,0,0,0,0,0,0,-0.0151,-0.0136,-0.011,-0.0107,-0.0122,-0.0083,-0.0078,-0.0075,-0.0012,-0.0003,-0.005,-0.0048,0.0044,0.0054,0.0063,0.0084,0.0104,0.0108,0.011,0.0199,0.0199,0.0199,0,0,0,0,0,0,-0.0152,-0.015,-0.0112,-0.0122,-0.0116,-0.0083,-0.008,-0.0074,-0.0062,-0.0009,0.0002,-0.0045,0.0045,0.0057,0.0096,0.0089,0.0109,0.0113,0.0199,0.0199,0.0199,0.0131,0,0,0,0,0,0,-0.0154,-0.015,-0.0156,-0.0123,-0.0116,-0.0104,-0.008,-0.0073,-0.0062,-0.0058,-0.0001,0.0009,0.0046,0.0089,0.01,0.0095,0.0117,0.0199,0.0199,0.0199,0.0134,0.0129,0.0125,0,0,0,0,0,-0.0155,-0.0165,-0.0156,-0.0153,-0.0123,-0.0104,-0.0098,-0.0073,-0.0062,-0.0061,-0.002,0.0007,0.0095,0.0092,0.0105,0.0101,0.0199,0.0199,0.0199,0.0136,0.013,0.0125,0,0,0,0,0,0,-0.0184,-0.0161,-0.0151,-0.0153,-0.0134,-0.0098,-0.0098,-0.0078,-0.0046,-0.0043,0.001,0.0024,0.0052,0.0088,0.0084,0.0127,0.015,0.0153,0.0098,0.0093,0.0089,0.0072,0.012,0,0,0,0,0,-0.0194,-0.0196,-0.0167,-0.0172,-0.0164,-0.0132,-0.0123,-0.0105,-0.0072,-0.0058,-0.0018,0.0025,0.0061,0.0086,0.0121,0.015,0.0186,0.0156,0.0151,0.0147,0.0143,0.0191,0.019,0.0198,0.0198,0.0198,0,0,-0.0208,-0.0196,-0.0197,-0.0178,-0.0162,-0.0158,-0.0126,-0.0117,-0.0111,-0.005,-0.003,0.0009,0.0064,0.0092,0.0108,0.0123,0.0163,0.0147,0.0143,0.0141,0.0191,0.019,0.0189,0.0198,0.0198,0.0198,0,0,-0.0241,-0.0226,-0.024,-0.0225,-0.0206,-0.0183,-0.0184,-0.015,-0.0133,-0.0107,-0.0065,-0.0029,0.0027,0.0065,0.0092,0.0087,0.0133,0.0096,0.0067,0.0114,0.0113,0.0113,0.0153,0.0157,0.0099,0.0099,0.0099,0,-0.0264,-0.0271,-0.0241,-0.0248,-0.0242,-0.0199,-0.0209,-0.0184,-0.0141,-0.0128,-0.0111,-0.0031,0.0015,0.0054,0.0051,0.0077,0.0108,0.0081,0.0107,0.0108,0.0109,0.015,0.0155,0.0096,0.0096,0.0096,0.0097,0,-0.0302,-0.0308,-0.0315,-0.0308,-0.0295,-0.0297,-0.0259,-0.0244,-0.0217,-0.0186,-0.0148,-0.0084,-0.0036,-0.0016,0.0017,0.0047,0.0067,0.009,0.0116,0.0104,0.0148,0.0155,0.0091,0.0092,0.0093,0.0094,0,0,-0.036,-0.0346,-0.0351,-0.0356,-0.0327,-0.0323,-0.031,-0.0286,-0.0278,-0.023,-0.0212,-0.0147,-0.0111,-0.0078,-0.0028,0.0015,0.0052,0.005,0.0055,0.0082,0.0149,0.0142,0.015,0.0078,0.0079,0.0079,0.0174,0,-0.0405,-0.0434,-0.0408,-0.0429,-0.044,-0.0393,-0.0384,-0.0352,-0.0315,-0.0284,-0.0214,-0.0178,-0.0134,-0.011,-0.0062,0.0026,0.0067,0.0023,0.0163,0.0167,0.0158,0.0157,0.0082,0.0179,0.0181,0.0182,0.0183,0,-0.0458,-0.0467,-0.0505,-0.049,-0.049,-0.0493,-0.047,-0.0454,-0.0394,-0.0361,-0.0309,-0.0249,-0.0176,-0.0139,-0.0003,-0.0034,0.0045,0.0113,0.0119,0.0141,0.0174,0.0198,0.0196,0.0195,0.0194,0.0193,0.0192,0,-0.0529,-0.0534,-0.0569,-0.0567,-0.0546,-0.0552,-0.0534,-0.0488,-0.0472,-0.0411,-0.0388,-0.0294,-0.0238,-0.0133,0.0008,0.0003,0.016,0.0177,0.0244,0.0245,0.0252,0.0252,0.0264,0.0264,0.0264,0.0264,0.0264,0,-0.0592,-0.0616,-0.0608,-0.0632,-0.066,-0.0617,-0.0632,-0.0599,-0.0549,-0.0527,-0.0436,-0.0391,-0.0234,-0.0122,-0.0005,0.0141,0.0154,0.0237,0.0269,0.0222,0.0216,0.0257,0.0255,0.0267,0.0267,0.0266,0.0265,0,-0.0663,-0.0665,-0.0703,-0.07,-0.0704,-0.0724,-0.0699,-0.0695,-0.0641,-0.0608,-0.0589,-0.0454,-0.0305,-0.0147,0.0042,0.0126,0.0266,0.0314,0.0248,0.0275,0.0321,0.0315,0.0392,0.0392,0.0393,0.0393,0.0393,0,-0.0696,-0.0731,-0.0766,-0.0798,-0.0803,-0.0817,-0.0821,-0.0762,-0.074,-0.0641,-0.062,-0.0477,-0.0374,-0.0108,0.0049,0.0266,0.0295,0.036,0.0339,0.0311,0.0335,0.0327,0.032,0.0394,0.0394,0.0394,0.0395,0,-0.075,-0.0776,-0.0805,-0.088,-0.0908,-0.0917,-0.0907,-0.0892,-0.0806,-0.0764,-0.0628,-0.048,-0.0309,-0.0107,0.0065,0.0218,0.0312,0.0365,0.0365,0.0346,0.0315,0.0337,0.0329,0.0396,0.0396,0.0396,0.0396,0,-0.078,-0.0818,-0.0877,-0.093,-0.0982,-0.0992,-0.0974,-0.0907,-0.0863,-0.0728,-0.0686,-0.0488,-0.0364,-0.0131,0.0025,0.0176,0.0209,0.0246,0.0253,0.0253,0.0181,0.012,0.0167,0,0,0,0,0,-0.0789,-0.0841,-0.0913,-0.0971,-0.1029,-0.1049,-0.1018,-0.0976,-0.089,-0.0799,-0.0731,-0.0564,-0.0304,-0.0186,-0.0036,0.001,0.0212,0.0187,0.0252,0.0405,0.0403,0.0342,0,0,0,0,0,0,-0.0799,-0.0875,-0.0915,-0.0996,-0.1045,-0.1084,-0.1062,-0.0999,-0.0919,-0.082,-0.0674,-0.0564,-0.031,-0.0407,-0.0053,-0.0004,0.0052,0.032,0.0323,0.0406,0.0405,0.0403,0.0339,0,0,0,0,0]}]]